Hourly Data Report for July 26, 2020

All times are specified in Local Standard Time (LST). Add 1 hour to adjust for Daylight Saving Time where and when it is observed.

OTTAWA INTL A
ONTARIO
Current Station Operator: NAVCAN

45°19'00.000" N
75°40'00.000" W
114.90 m
6106001
71628
YOW

Download Data

Hourly Data (July 2020)
Hourly Data Report for July 26, 2020
TIME Temp Definition
°C
Dew Point Definition
°C
Rel Hum Definition
%
Wind Dir Definition
10's deg

Wind Spd Definition
km/h
Visibility Definition
km
Stn Press Definition
kPa
Hmdx Definition


Wind Chill Definition


Weather Definition


00:00 22.1 15.1 64 23 11 24.1 100.04 26   LegendNANA
01:00 22.0 15.4 66 22 14 24.1 100.03 26   Mostly Cloudy
02:00 21.5 15.6 69 22 10 24.1 100.04 26   LegendNANA
03:00 21.5 15.2 67 23 12 24.1 99.99 26   LegendNANA
04:00 21.2 14.8 66 21 11 24.1 99.94 25   Mostly Cloudy
05:00 21.5 14.9 66 21 14 24.1 99.94 25   LegendNANA
06:00 21.4 15.4 68 21 13 24.1 99.94 26   LegendNANA
07:00 22.8 15.7 64 22 19 24.1 99.90 27   Mostly Cloudy
08:00 24.4 16.7 62 23 16 24.1 99.87 29   LegendNANA
09:00 27.6 18.1 56 23 18 24.1 99.79 34   LegendNANA
10:00 30.2 19.7 53 23 21 24.1 99.71 38   Mainly Clear
11:00 32.5 20.4 48 23 21 24.1 99.64 40   LegendNANA
12:00 33.7 19.8 43 25 20 24.1 99.56 41   LegendNANA
13:00 33.4 20.7 47 23 21 24.1 99.52 42   Mostly Cloudy
14:00 34.4 18.7 39 25 28 24.1 99.46 41   LegendNANA
15:00 34.1 19.3 41 24 22 24.1 99.44 41   LegendNANA
16:00 34.5 19.0 39 26 31 24.1 99.44 41   Mostly Cloudy
17:00 34.2 18.7 39 26 27 24.1 99.36 41   LegendNANA
18:00 32.4 19.0 45 26 32 24.1 99.38 39   LegendNANA
19:00 31.5 19.6 49 26 30 24.1 99.35 39   Mostly Cloudy
20:00 30.1 20.0 54 26 19 24.1 99.36 38   LegendNANA
21:00 28.9 20.5 60 25 12 24.1 99.41 37   LegendNANA
22:00 28.2 21.0 64 25 12 24.1 99.41 37   Mostly Cloudy
23:00 28.3 21.7 67 26 14 24.1 99.41 37   LegendNANA

Notes on Data Quality.

Legend

  • E = Estimated
  • M = Missing
  • NA = Not Available*
  • [empty] = Indicates an unobserved value
Date modified: